Temperature
19 17 17 17 18 19 19 19 19 20 21 21 20 20 20 20 21 21 21 22 22 22 22 22 22 21 21 21 21 20 20 19 19 18 18 17 17 16 16 16 15 15 15 15
17 17 18 19 19 19 19 19 19 20 21 21 19 19 19 20 20 21 21 22 22 22 22 22 22 21 21 21 21 20 20 19 19 18 18 17 17 16 16 16 15 15 15 15
17 18 20 20 20 20 19 19 19 20 20 20 19 19 19 19 20 21 21 22 22 22 22 22 21 21 21 21 21 20 20 20 19 19 18 17 17 16 16 16 15 15 15 15
17 19 20 20 19 19 19 20 20 20 19 18 19 18 19 19 19 19 20 21 21 22 22 22 21 21 21 21 21 20 20 19 19 18 18 18 17 17 16 16 16 15 15 15
18 19 19 20 20 20 19 20 20 19 18 18 18 18 18 19 19 19 19 20 21 21 21 21 21 21 21 21 20 20 20 19 19 18 18 17 17 17 16 16 16 15 15 15
18 19 19 20 20 20 20 19 18 17 17 18 18 18 19 18 19 19 19 20 21 21 21 21 21 21 21 20 20 20 20 19 19 18 18 17 17 17 16 16 16 16 15 15
19 19 20 20 19 19 18 17 18 18 17 18 18 19 18 19 19 19 19 20 20 21 21 21 21 20 20 20 20 20 19 19 19 18 18 17 17 17 16 16 16 16 16 15
18 18 19 20 20 19 18 18 17 17 17 17 19 19 19 20 20 20 20 20 20 20 20 20 20 20 20 20 20 19 19 19 18 18 18 17 17 17 16 16 16 16 16 15
18 18 20 21 21 20 18 17 17 17 17 17 18 19 19 19 18 19 19 19 19 20 20 20 20 20 20 20 19 19 19 18 18 18 17 17 17 17 16 16 16 16 16 16
18 19 20 21 21 20 19 18 17 17 17 17 18 18 17 18 18 18 18 18 19 19 19 19 19 19 19 19 19 19 19 18 18 18 17 17 17 17 16 16 16 16 16 16
19 19 20 21 21 20 20 19 18 16 17 17 17 18 19 19 18 18 18 19 19 19 19 19 19 19 19 19 19 19 19 18 18 18 17 17 17 16 16 16 16 16 16 16
19 17 18 20 21 22 21 20 18 18 18 17 17 18 20 19 19 19 18 19 19 19 19 19 19 19 19 19 19 19 18 18 18 17 17 17 16 16 16 16 16 16 16 16
19 18 18 20 20 21 22 21 20 18 17 16 17 19 19 18 18 19 19 19 19 19 19 19 19 19 19 19 19 18 18 18 17 17 17 16 16 16 16 16 16 16 16 15
19 18 18 19 20 20 21 22 21 19 17 18 18 18 18 17 17 17 18 19 19 19 19 18 18 18 18 18 18 18 18 17 17 17 16 16 16 16 16 16 16 15 15 15
19 19 20 20 21 22 22 22 21 21 19 19 19 18 18 18 18 18 18 18 18 18 18 18 18 18 18 18 18 18 17 17 17 16 16 16 16 15 15 15 15 15 15 15
19 20 21 21 22 22 22 22 22 22 21 20 20 19 19 19 19 18 18 18 18 18 18 18 18 18 18 18 17 17 17 17 16 16 16 16 15 15 15 15 15 15 15 14
18 19 20 19 20 22 21 22 22 22 21 20 19 19 18 17 18 18 18 18 18 18 18 18 18 18 18 18 17 17 17 16 16 16 15 15 15 15 15 14 14 14 14 14
18 18 17 18 20 20 20 21 22 21 21 20 20 19 19 19 19 19 19 19 19 19 18 18 18 18 17 17 17 17 16 16 16 16 15 15 15 14 14 14 14 14 13 13
18 18 16 17 18 19 20 22 22 21 21 20 20 19 19 20 18 18 19 20 20 19 19 18 18 18 17 17 17 16 16 16 15 15 15 15 14 14 14 14 13 13 13 13
16 16 16 16 19 19 20 22 23 21 20 20 20 18 18 18 16 17 19 19 19 19 19 18 18 17 17 17 16 16 16 15 15 15 14 14 14 14 13 13 13 13 12 12
17 16 16 16 17 18 19 21 22 20 20 21 21 20 19 19 20 21 20 19 19 19 18 18 17 17 17 17 16 16 15 15 15 14 14 14 13 13 13 12 12 12 12 12
16 15 15 14 16 18 20 21 20 20 21 21 21 21 20 21 21 20 20 19 19 18 18 18 17 17 16 16 16 15 15 15 14 14 13 13 13 12 12 12 12 12 11 11
15 16 15 16 17 19 21 22 23 23 22 22 22 21 21 20 20 20 19 19 18 18 18 17 17 16 16 15 15 15 15 14 14 13 13 13 12 12 12 12 11 11 11 11
16 16 15 16 17 19 20 22 22 23 23 23 22 21 21 20 20 19 19 18 18 18 17 17 16 16 15 15 15 15 14 14 13 13 13 12 12 12 11 11 11 11 10 10
17 17 16 16 17 19 20 21 22 22 22 22 22 21 21 20 20 19 19 18 18 17 17 16 16 16 15 15 14 14 14 13 13 13 12 12 12 11 11 11 11 10 10 10
15 16 16 16 17 17 19 21 21 21 21 21 21 20 20 20 20 19 18 18 17 17 16 16 15 15 15 14 14 14 13 13 13 12 12 12 11 11 11 11 10 10 10 10
Wind_Speed
2 3 3 6 6 5 3 3 3 4 5 6 6 3 3 3 4 5 5 6 6 6 5 6 7 8 9 8 8 8 8 7 6 4 4 3 2 1 1 1 2 3 4 4
3 3 7 5 4 4 3 3 3 1 4 6 5 1 1 2 4 6 7 7 6 5 4 5 6 7 8 8 8 8 8 7 6 4 3 3 3 1 1 0 1 2 2 2
5 6 5 6 5 5 5 5 5 4 3 5 6 4 3 2 2 3 4 5 5 7 7 6 6 6 7 7 7 8 7 7 6 5 4 4 3 3 2 1 1 1 1 1
5 6 4 6 6 6 4 4 4 5 6 2 4 2 2 1 2 2 3 4 4 5 6 5 5 5 6 6 6 6 7 7 6 6 6 5 3 2 2 2 2 2 2 1
4 3 5 5 6 6 5 2 3 5 5 4 2 4 4 1 4 3 3 4 4 5 7 6 5 5 5 5 6 6 7 6 5 6 6 5 3 2 1 0 0 1 2 2
4 1 3 4 3 4 3 5 6 5 4 2 3 4 5 5 8 7 4 4 5 5 6 5 4 5 5 5 6 6 7 5 5 5 5 5 4 2 1 0 0 1 2 2
2 2 1 2 3 1 4 5 4 3 2 3 2 2 6 7 9 10 10 7 6 6 6 6 5 5 5 6 6 6 7 5 4 5 4 4 4 3 2 2 2 1 1 2
3 3 4 4 5 5 4 6 6 5 4 2 1 3 5 4 7 8 9 9 7 6 6 6 5 5 5 6 6 7 7 5 4 4 3 2 2 2 2 2 2 2 2 3
6 4 3 5 5 7 6 4 6 6 3 2 2 1 3 5 8 8 8 8 7 6 6 5 5 5 6 6 6 6 7 5 3 3 3 2 1 2 1 1 1 1 2 2
5 3 3 4 3 1 6 8 5 5 5 3 2 4 7 10 10 9 10 9 7 6 6 6 5 5 4 5 5 5 6 5 3 3 2 2 1 1 1 1 1 1 2 1
4 4 2 3 6 7 5 4 5 4 5 6 5 6 8 15 15 14 12 10 10 9 7 6 5 4 5 5 5 5 4 4 3 3 2 2 1 1 2 2 1 1 2 2
5 4 2 6 5 7 7 7 7 6 4 5 5 6 5 14 13 13 12 10 9 8 7 6 6 5 5 5 4 4 4 4 3 3 3 2 2 2 2 2 2 2 2 2
6 5 3 3 4 1 3 6 6 6 5 5 5 5 1 10 11 11 12 10 9 8 7 6 6 5 5 5 4 4 4 4 4 5 5 4 3 3 2 2 3 3 3 3
6 4 6 8 7 6 5 6 7 7 4 5 7 6 5 11 12 11 11 11 10 9 8 7 6 5 5 5 5 4 4 4 5 6 6 5 3 3 2 3 3 3 3 3
5 3 5 7 7 5 6 8 9 7 8 8 8 11 15 18 18 16 14 12 11 10 9 9 7 6 5 5 4 4 4 4 5 6 5 4 3 3 4 4 4 4 4 4
3 3 1 3 4 3 4 8 10 8 7 6 7 7 8 10 10 11 13 15 13 12 11 10 9 8 7 6 5 5 5 5 6 6 4 3 4 4 4 4 4 5 5 5
4 5 3 3 5 2 5 9 10 7 7 9 9 9 10 10 16 19 17 16 15 13 11 11 10 9 7 6 6 6 5 5 6 5 4 3 4 4 4 4 5 5 4 4
7 5 4 1 1 5 9 6 8 9 8 9 9 10 17 18 17 14 13 15 15 14 12 11 9 8 6 6 6 6 6 6 6 5 4 3 3 3 3 4 4 4 3 4
6 7 4 3 3 6 8 5 6 8 6 7 10 11 12 10 8 3 8 12 14 13 11 9 8 8 7 7 7 8 7 6 6 4 3 2 3 3 2 3 2 2 3 3
6 6 6 4 4 6 8 7 4 7 4 5 9 13 13 13 9 9 10 11 11 10 10 9 8 7 8 7 8 9 7 6 5 4 3 3 3 3 2 0 1 1 1 2
3 4 5 5 5 8 9 5 5 6 9 5 10 15 16 12 10 9 13 12 11 11 10 10 10 8 7 8 9 8 7 6 5 4 4 3 2 2 2 1 0 0 1 3
9 7 6 6 5 9 6 5 7 8 3 6 10 13 14 9 7 11 14 14 13 11 10 10 9 8 7 8 9 8 6 5 5 4 3 2 2 1 2 2 0 0 1 2
8 10 8 9 9 7 5 7 5 6 6 6 9 10 12 10 9 11 12 13 12 12 11 9 9 8 6 7 8 8 6 5 5 4 3 2 2 1 1 2 1 0 1 1
4 3 4 3 5 4 2 3 3 5 6 7 9 10 11 10 10 11 11 11 10 10 9 8 9 8 7 6 7 7 6 6 6 5 4 3 3 2 1 1 1 1 1 2
4 3 3 2 2 1 1 2 4 5 7 8 8 9 11 12 11 11 11 11 10 9 8 9 9 9 8 7 6 6 6 6 6 5 4 4 3 3 3 2 3 3 4 5
4 5 6 6 8 6 6 5 6 7 7 8 9 7 8 11 13 12 11 10 10 10 8 8 8 8 8 7 7 6 6 7 6 5 4 4 4 3 3 3 3 6 6 7
Wind_Direction
110 87 195 207 188 187 190 191 224 224 184 145 155 180 189 187 156 160 181 184 180 190 189 169 164 157 152 153 147 149 146 145 129 116 113 108 108 111 74 65 99 89 79 70
65 240 227 209 206 218 230 237 244 258 172 144 140 145 150 164 170 170 173 173 176 165 155 150 149 153 155 159 156 155 154 150 145 140 143 144 144 156 153 348 62 105 100 68
195 237 222 207 214 214 238 217 204 172 102 84 99 29 22 1 81 120 130 139 148 158 161 157 153 155 152 159 164 164 161 154 148 134 112 88 66 48 36 13 307 282 209 97
234 247 218 197 204 191 229 228 192 154 121 136 122 125 292 179 97 112 126 127 138 154 149 151 157 155 156 165 153 148 151 148 142 132 126 129 132 159 220 224 242 277 263 241
240 203 179 196 209 181 211 209 141 128 115 85 77 125 265 176 146 177 163 146 145 151 146 145 151 150 143 138 135 134 133 134 137 135 136 130 134 183 226 254 252 297 302 281
250 247 180 193 201 178 151 78 65 61 78 108 213 145 216 210 186 178 168 145 140 133 132 131 119 109 104 106 118 125 124 124 130 129 131 135 144 161 149 349 287 294 297 297
302 282 230 169 129 100 100 101 82 52 39 244 232 155 225 217 187 169 163 154 145 135 127 119 111 106 112 114 119 127 126 125 130 129 138 150 159 166 186 217 219 232 262 267
165 243 218 182 164 155 154 137 147 159 185 263 341 214 257 207 159 146 144 145 140 132 125 123 128 124 119 121 120 122 124 125 129 133 149 157 156 156 191 211 205 214 226 240
177 227 228 185 167 142 137 150 156 130 134 117 251 279 357 87 122 134 139 138 144 141 132 127 124 122 120 119 123 129 125 117 122 128 121 107 133 148 186 217 200 222 239 245
158 193 213 181 130 76 153 146 122 133 148 163 207 213 197 177 168 158 154 153 151 141 130 124 120 120 120 125 120 119 121 126 122 115 115 107 103 119 114 75 29 314 297 289
147 154 215 174 188 180 151 145 137 137 154 149 181 244 210 184 175 168 167 161 154 148 143 137 130 123 115 111 113 114 117 112 109 113 102 92 84 74 75 56 3 348 349 326
168 136 203 241 246 179 165 168 152 152 190 170 170 251 225 176 171 163 162 160 155 148 145 138 128 116 108 106 106 112 116 116 121 122 107 94 71 57 46 9 335 337 355 358
148 129 109 351 331 226 193 183 164 141 126 152 164 250 23 148 152 160 157 156 153 146 139 130 122 122 122 118 112 108 112 117 107 101 94 77 64 57 37 7 349 352 354 360
131 131 166 188 209 202 210 205 172 138 147 184 203 191 170 165 162 165 162 159 155 152 147 142 139 137 133 127 120 112 106 114 109 97 89 76 61 57 41 25 19 13 15 18
125 168 216 233 235 199 200 199 189 179 180 182 206 187 193 184 176 172 166 159 157 157 156 155 154 150 140 130 124 118 113 108 106 98 88 76 61 54 44 36 25 19 20 20
134 172 213 289 266 215 207 206 200 199 183 178 165 208 199 170 154 160 166 166 167 169 167 164 160 155 152 148 141 132 125 122 112 105 100 86 69 59 46 33 26 24 15 9
152 148 127 273 304 17 256 222 201 201 189 164 183 207 156 158 175 179 177 175 175 173 169 167 165 163 164 162 151 146 144 127 115 110 99 85 76 62 41 33 33 23 10 8
141 129 137 205 42 223 244 245 198 192 206 190 181 177 172 181 185 181 174 173 175 174 170 169 165 163 164 154 144 137 128 122 117 111 103 93 85 72 50 43 30 12 5 5
146 137 128 136 204 270 289 267 183 173 227 205 176 172 169 140 115 167 188 175 175 172 167 165 163 158 152 146 142 131 126 126 123 125 126 128 118 100 70 44 14 1 9 4
91 108 126 137 179 236 251 265 188 126 229 233 169 158 149 132 160 209 190 169 163 158 156 154 149 140 144 152 142 132 137 138 150 166 170 163 145 133 128 140 325 346 7 357
121 107 145 166 209 259 254 262 115 149 228 210 168 160 159 169 189 178 160 161 159 155 155 149 144 145 155 152 140 138 146 166 183 178 166 160 161 170 178 178 222 350 15 10
174 171 179 157 194 249 248 151 175 206 198 157 163 166 168 160 134 141 154 157 155 153 151 149 148 152 155 151 144 149 173 190 178 165 163 172 188 195 154 146 153 24 42 14
193 190 184 187 211 236 226 197 201 163 148 157 163 165 153 138 141 148 154 156 157 157 157 154 153 155 160 161 155 162 190 181 164 162 177 193 196 203 173 167 191 308 355 337
264 156 142 214 258 250 204 150 134 143 145 153 154 150 146 145 148 149 153 156 157 158 160 156 153 159 172 180 175 178 183 172 163 177 198 202 198 221 229 213 202 204 237 259
233 148 142 217 254 70 333 175 146 121 117 124 134 147 154 146 149 156 160 164 165 163 162 161 165 173 184 185 188 190 183 169 173 189 202 205 205 211 227 238 229 223 231 222
215 175 169 212 214 183 211 210 163 139 141 142 138 141 151 154 158 159 165 168 167 167 165 168 173 179 186 187 193 197 187 177 178 194 207 208 210 215 220 238 272 263 254 271
Height
1505 1511 1515 1513 1512 1514 1515 1518 1519 1515 1510 1514 1518 1519 1517 1517 1517 1519 1520 1521 1522 1525 1527 1529 1531 1533 1535 1537 1538 1539 1539 1540 1540 1540 1540 1540 1539 1539 1538 1537 1536 1534 1533 1531
1511 1513 1508 1508 1510 1512 1514 1519 1519 1514 1510 1514 1519 1521 1518 1517 1517 1518 1518 1520 1522 1524 1527 1529 1531 1533 1534 1536 1537 1538 1539 1540 1540 1540 1540 1540 1539 1539 1538 1537 1536 1535 1533 1532
1512 1508 1504 1507 1510 1513 1514 1517 1517 1517 1513 1515 1521 1528 1525 1520 1519 1519 1519 1520 1522 1523 1526 1528 1531 1532 1534 1535 1537 1538 1539 1540 1540 1540 1540 1540 1539 1539 1538 1538 1537 1536 1534 1533
1508 1503 1503 1506 1509 1511 1517 1510 1511 1514 1522 1530 1527 1542 1530 1523 1522 1520 1520 1521 1522 1524 1526 1528 1530 1532 1533 1535 1536 1537 1538 1539 1540 1540 1540 1540 1539 1539 1538 1538 1537 1536 1535 1534
1506 1502 1503 1506 1505 1507 1511 1507 1510 1515 1524 1532 1531 1540 1536 1526 1526 1523 1521 1521 1522 1524 1525 1527 1529 1531 1532 1534 1535 1536 1538 1539 1539 1540 1540 1539 1539 1539 1538 1538 1537 1536 1535 1534
1502 1499 1500 1501 1501 1503 1506 1511 1515 1522 1528 1541 1534 1538 1538 1529 1523 1521 1520 1521 1521 1523 1525 1527 1529 1530 1532 1533 1534 1536 1537 1538 1539 1539 1539 1539 1539 1538 1538 1537 1537 1536 1535 1534
1504 1500 1498 1498 1504 1506 1509 1522 1535 1541 1546 1544 1530 1533 1532 1518 1515 1516 1518 1520 1521 1523 1525 1526 1528 1530 1531 1532 1534 1535 1536 1537 1538 1538 1539 1539 1538 1538 1538 1537 1537 1536 1536 1535
1511 1511 1499 1497 1501 1507 1512 1519 1536 1547 1550 1544 1531 1533 1523 1511 1512 1514 1516 1519 1521 1522 1524 1526 1527 1529 1530 1532 1533 1534 1535 1536 1537 1538 1538 1538 1538 1538 1537 1537 1537 1536 1535 1535
1510 1508 1494 1493 1495 1500 1511 1517 1518 1531 1537 1544 1538 1529 1519 1513 1515 1516 1517 1519 1521 1522 1524 1526 1527 1529 1530 1531 1533 1534 1535 1536 1536 1537 1537 1537 1537 1537 1537 1537 1536 1536 1535 1534
1498 1505 1496 1493 1494 1498 1501 1507 1521 1530 1542 1548 1540 1534 1530 1520 1517 1516 1517 1518 1520 1522 1524 1526 1527 1529 1530 1531 1532 1534 1535 1535 1536 1536 1537 1537 1537 1537 1537 1536 1536 1535 1535 1534
1494 1502 1500 1496 1497 1501 1503 1508 1514 1524 1527 1541 1547 1536 1508 1509 1509 1512 1515 1517 1519 1521 1523 1525 1527 1529 1530 1531 1532 1533 1534 1535 1535 1536 1536 1536 1536 1536 1536 1536 1535 1535 1534 1533
1491 1501 1506 1498 1488 1486 1492 1498 1508 1522 1525 1527 1533 1527 1497 1501 1505 1508 1513 1516 1518 1521 1523 1525 1527 1529 1530 1531 1532 1533 1534 1534 1535 1535 1535 1535 1535 1535 1535 1535 1534 1534 1533 1533
1488 1499 1510 1508 1501 1492 1491 1492 1496 1505 1516 1525 1530 1520 1499 1500 1505 1508 1511 1515 1518 1520 1523 1525 1527 1528 1529 1530 1531 1532 1533 1533 1534 1534 1535 1535 1534 1534 1534 1534 1533 1533 1532 1531
1482 1494 1503 1509 1502 1492 1491 1489 1490 1501 1515 1518 1515 1510 1504 1503 1505 1507 1510 1513 1516 1519 1521 1523 1525 1527 1529 1530 1531 1532 1532 1533 1533 1534 1534 1534 1534 1533 1533 1532 1532 1531 1530 1530
1480 1490 1489 1487 1482 1483 1484 1485 1487 1492 1498 1506 1503 1503 1498 1496 1498 1503 1507 1511 1515 1517 1520 1522 1524 1526 1527 1529 1530 1531 1532 1532 1533 1533 1533 1533 1532 1532 1532 1531 1530 1530 1529 1528
1480 1486 1485 1485 1479 1479 1481 1481 1482 1484 1486 1491 1494 1496 1489 1493 1498 1502 1505 1508 1512 1514 1517 1520 1522 1524 1526 1527 1529 1530 1530 1531 1532 1532 1532 1532 1531 1531 1530 1530 1529 1528 1527 1526
1482 1485 1491 1495 1485 1482 1490 1479 1479 1480 1479 1484 1492 1489 1487 1493 1495 1497 1500 1504 1507 1511 1514 1517 1520 1522 1524 1526 1527 1528 1529 1530 1531 1531 1531 1531 1530 1530 1529 1528 1527 1526 1525 1524
1480 1486 1495 1497 1492 1501 1484 1467 1468 1472 1473 1473 1475 1477 1480 1482 1486 1491 1495 1499 1504 1508 1511 1515 1518 1520 1523 1525 1526 1527 1528 1529 1529 1529 1529 1529 1529 1528 1528 1527 1526 1524 1523 1522
1471 1482 1494 1501 1501 1494 1477 1465 1465 1471 1474 1468 1470 1474 1478 1482 1489 1494 1495 1498 1501 1505 1509 1512 1516 1519 1521 1523 1524 1526 1527 1527 1528 1528 1528 1528 1527 1527 1526 1525 1524 1523 1522 1520
1473 1477 1491 1499 1499 1500 1478 1461 1459 1465 1475 1466 1466 1470 1476 1481 1492 1490 1491 1495 1500 1504 1508 1511 1514 1517 1519 1521 1523 1524 1525 1525 1526 1526 1526 1526 1525 1525 1524 1523 1522 1521 1520 1518
1479 1484 1491 1496 1497 1488 1466 1459 1461 1479 1475 1462 1463 1466 1471 1474 1477 1480 1486 1492 1497 1502 1506 1509 1512 1515 1517 1519 1520 1521 1522 1523 1524 1524 1524 1524 1523 1523 1522 1521 1520 1519 1518 1517
1478 1485 1490 1494 1496 1487 1458 1459 1464 1463 1458 1459 1462 1464 1467 1471 1475 1479 1484 1489 1494 1499 1503 1506 1509 1512 1515 1516 1518 1519 1520 1521 1521 1522 1521 1521 1521 1520 1520 1519 1518 1517 1515 1514
1469 1468 1471 1473 1471 1458 1455 1455 1455 1456 1457 1459 1461 1464 1467 1471 1475 1478 1482 1487 1492 1496 1500 1504 1507 1509 1512 1514 1515 1516 1517 1518 1518 1519 1518 1518 1518 1517 1517 1516 1515 1514 1512 1511
1461 1459 1463 1465 1459 1455 1453 1453 1454 1456 1457 1459 1461 1464 1467 1470 1474 1478 1482 1486 1490 1494 1497 1501 1504 1506 1508 1510 1512 1513 1514 1515 1515 1515 1515 1515 1515 1514 1514 1513 1512 1511 1509 1508
1456 1457 1460 1461 1456 1454 1454 1454 1455 1456 1458 1460 1462 1464 1466 1469 1473 1476 1480 1483 1487 1491 1494 1497 1500 1502 1505 1507 1508 1510 1511 1511 1511 1511 1511 1511 1511 1510 1510 1509 1508 1507 1506 1504
1453 1454 1458 1458 1452 1453 1453 1454 1455 1456 1457 1459 1461 1464 1466 1468 1471 1474 1477 1480 1484 1487 1491 1494 1496 1499 1501 1503 1504 1506 1506 1507 1507 1507 1507 1507 1507 1506 1505 1505 1504 1503 1502 1500